Wind_Speed
8 8 8 8 8 8 8 8 9 9 9 8 8 8 8 8 8 8 7 7 8 7 7 7 7 6 6 6 6 6 6 6 6 6 5 5 5 6 6 6 6 6 7 7
9 9 10 10 9 9 9 9 9 9 9 8 8 9 9 9 9 8 8 7 7 8 8 8 8 7 7 7 7 6 6 6 6 6 6 6 6 6 6 6 7 7 7 8
10 11 11 11 11 10 9 9 9 9 9 9 9 9 9 9 9 9 8 7 7 7 7 8 8 7 7 7 8 7 7 7 7 7 7 7 7 7 7 7 8 8 9 9
12 12 12 12 11 10 10 9 9 9 9 9 9 9 9 9 9 9 8 7 7 8 8 9 8 8 8 7 8 8 7 7 7 7 7 7 7 7 8 8 9 9 10 10
12 12 12 11 11 11 10 10 10 10 9 9 10 10 9 9 8 8 8 8 8 9 9 9 9 8 8 8 8 8 8 8 8 8 8 8 8 8 8 9 9 10 10 10
11 11 11 11 11 11 11 11 11 11 10 10 10 10 9 9 9 9 9 9 9 9 10 10 10 9 9 9 9 9 9 9 9 9 9 9 9 9 10 10 10 11 11 11
12 12 12 11 11 11 11 11 11 11 12 11 11 11 11 10 10 10 10 10 9 10 11 10 10 10 10 10 10 10 10 10 10 10 10 11 11 11 11 11 11 11 12 12
13 13 13 12 12 12 11 11 11 11 11 12 11 11 11 11 11 11 11 10 10 10 11 11 11 11 11 11 11 11 11 10 11 11 11 12 12 11 11 11 12 12 12 13
14 14 14 13 12 12 12 11 12 12 12 12 12 11 12 12 12 12 12 12 11 11 12 12 12 12 12 12 12 12 12 12 12 12 12 12 12 12 12 12 13 13 13 13
15 15 15 14 14 13 13 13 13 13 13 13 12 12 11 12 12 13 13 13 13 13 13 13 13 13 13 14 14 14 13 13 12 12 13 13 13 13 13 14 14 13 13 13
17 17 16 15 15 14 14 14 14 14 15 14 14 13 12 12 13 13 14 14 14 14 14 14 14 15 15 15 14 14 14 14 13 13 14 14 14 14 14 15 15 15 15 15
18 18 18 17 16 16 16 16 16 16 16 16 15 14 14 13 14 14 15 15 15 16 16 16 15 15 15 15 14 14 14 15 15 15 15 15 15 15 15 16 16 16 16 16
19 19 19 18 18 18 18 18 17 18 18 18 17 16 16 15 15 15 15 15 16 16 16 16 15 15 15 15 15 15 15 15 16 16 16 16 16 17 17 17 17 17 17 17
21 21 20 20 20 20 19 19 19 19 19 19 17 16 17 16 16 16 15 15 15 15 15 15 15 15 15 16 16 16 17 17 17 17 17 17 18 18 18 18 18 18 18 18
22 22 21 21 21 21 21 20 20 20 20 19 18 17 16 17 17 16 16 16 15 15 15 15 16 16 16 17 17 18 18 18 18 19 19 19 19 19 19 19 19 19 19 19
23 23 22 22 23 23 22 21 21 21 20 20 19 18 17 18 17 17 17 16 16 16 16 16 17 18 18 18 19 19 19 19 19 19 19 19 20 20 20 20 20 19 19 20
24 24 23 23 23 24 24 22 21 21 21 21 20 18 18 19 18 18 18 18 18 18 18 19 19 20 20 20 20 20 20 20 20 20 20 20 20 20 20 20 20 20 20 20
24 24 25 25 24 25 24 23 23 22 21 21 21 20 20 20 19 20 20 20 20 20 20 21 21 21 21 21 21 21 21 21 21 22 21 21 20 20 19 19 20 20 20 20
24 25 25 25 25 26 25 23 23 23 23 22 22 22 22 21 21 22 21 21 22 21 21 22 22 23 23 22 22 22 22 22 22 22 22 21 21 21 20 20 20 20 20 20
24 25 25 24 25 25 24 23 23 23 23 23 23 23 23 23 23 23 22 22 23 23 22 22 23 23 23 24 24 24 23 23 23 24 23 23 22 22 21 21 21 22 22 22
24 24 24 24 24 24 23 22 22 23 23 23 24 24 24 24 24 24 23 23 24 24 24 24 24 24 24 24 24 25 25 25 25 25 25 25 24 23 23 23 23 23 23 23
25 24 23 24 24 24 23 22 23 24 24 24 25 25 25 25 25 25 25 24 24 25 25 25 26 26 25 25 25 25 26 26 26 26 25 25 25 25 25 25 25 25 25 25
25 25 25 25 26 24 24 24 24 24 25 25 25 25 26 26 26 26 27 27 27 27 27 27 27 27 28 28 27 28 27 27 27 27 27 27 27 27 26 26 26 26 26 26
26 26 26 27 27 27 26 26 26 26 27 27 28 27 27 28 27 28 29 28 29 29 29 29 30 30 30 29 29 29 29 28 28 27 28 28 28 28 27 27 27 27 27 27
26 26 27 28 28 29 28 28 27 27 28 29 29 29 29 29 29 29 29 30 30 30 30 30 31 31 31 31 30 30 30 30 29 28 28 28 28 28 29 29 29 29 29 30
26 27 28 29 29 30 29 29 29 29 28 29 30 30 31 31 30 30 29 29 30 31 31 31 31 31 31 31 32 32 32 31 31 30 30 30 30 30 30 31 31 31 31 31
Wind_Direction
273 276 280 282 283 281 284 287 287 286 284 286 287 287 290 295 295 296 294 291 289 288 284 281 283 281 280 278 278 276 278 280 278 270 265 265 259 255 254 257 260 264 266 260
272 275 278 280 279 280 282 284 284 283 281 283 285 285 288 290 291 291 289 286 284 285 283 278 280 280 278 277 278 275 277 281 276 268 266 269 267 261 260 260 259 261 265 264
270 274 276 277 279 281 282 282 282 281 280 281 285 287 287 286 285 284 282 279 279 280 282 281 279 278 278 278 278 276 278 280 277 269 266 269 268 265 262 264 266 264 264 263
269 272 274 275 277 280 281 282 282 280 279 281 284 286 286 284 281 279 277 274 274 276 277 277 274 277 276 276 275 276 276 276 274 272 271 269 266 266 266 267 268 269 268 267
271 272 274 275 274 275 277 281 284 284 281 280 282 283 281 282 279 275 274 274 274 274 274 275 273 275 276 279 277 277 278 279 277 273 272 271 271 271 272 272 271 272 272 270
270 271 272 273 272 273 276 280 282 281 281 280 280 278 276 279 278 276 275 273 272 271 270 271 270 271 277 280 280 278 277 279 280 279 277 276 276 275 275 275 276 276 276 275
270 272 273 273 272 272 274 277 282 284 283 280 274 272 272 273 272 272 274 277 274 272 268 269 272 272 276 277 277 277 275 277 279 280 280 282 280 278 276 276 277 277 279 280
267 270 271 272 273 274 274 272 275 279 281 279 275 271 273 272 269 269 272 275 274 274 272 271 271 270 272 273 274 275 276 276 278 279 281 281 280 278 277 278 280 280 280 280
264 267 267 269 274 271 269 268 272 275 280 282 280 277 273 273 270 269 271 273 274 272 272 270 268 267 268 270 272 273 275 278 279 279 280 280 279 279 280 280 281 282 281 280
262 264 267 270 268 267 265 267 271 275 280 283 280 277 272 270 270 271 270 270 271 271 271 269 266 267 268 269 272 274 275 275 276 278 279 280 279 279 279 279 279 279 279 279
262 263 264 265 264 263 264 267 271 272 275 277 278 274 271 270 271 272 272 270 268 269 270 269 267 266 266 267 270 274 275 274 275 277 279 280 281 279 277 276 276 275 276 278
261 261 262 263 263 263 264 266 268 270 273 274 274 270 271 270 270 272 273 271 270 270 269 269 266 265 265 265 267 270 274 276 276 278 279 280 281 281 278 276 273 273 275 277
259 260 261 261 262 262 263 263 264 267 268 272 275 274 272 271 271 271 273 273 272 272 270 269 266 264 263 265 266 269 273 276 277 278 278 279 279 279 278 275 275 275 275 277
259 259 259 260 261 263 264 264 263 265 269 271 271 269 269 269 271 271 273 275 273 271 270 270 267 265 265 268 270 271 273 277 278 279 280 279 278 277 276 275 275 276 276 277
259 260 260 261 261 262 264 265 266 266 268 269 269 268 268 266 266 269 272 274 274 270 270 271 270 268 269 270 270 272 275 278 278 278 280 280 278 277 277 276 275 276 276 277
261 262 262 261 261 263 263 263 265 266 268 268 269 266 265 265 266 267 268 271 271 269 268 269 271 271 270 270 270 272 275 276 277 279 281 282 281 279 277 276 275 275 276 277
261 262 264 265 264 263 262 263 264 267 267 268 266 265 265 266 266 267 268 268 268 268 269 269 271 272 272 273 271 271 273 276 279 281 282 282 282 281 279 276 275 275 276 277
260 262 264 264 264 264 264 264 264 264 265 266 266 265 265 268 268 269 269 269 268 268 268 270 271 273 272 273 271 270 273 275 278 280 282 282 282 281 280 278 276 276 276 276
259 261 263 263 263 264 264 264 264 264 264 265 265 265 266 267 268 268 268 269 269 271 271 270 271 272 271 270 270 270 272 274 278 280 281 280 281 280 279 278 277 276 276 276
260 260 261 262 262 263 263 262 263 265 264 264 265 263 263 264 266 267 267 267 269 270 270 269 270 272 272 271 271 271 272 274 276 278 278 278 278 278 277 277 277 276 276 276
260 261 261 262 263 262 262 261 262 263 265 264 264 263 264 264 266 268 268 269 268 269 270 270 271 273 273 272 273 273 273 273 276 277 276 276 275 275 275 276 276 276 276 276
260 261 262 262 262 264 263 263 263 264 266 265 265 265 266 265 265 266 267 267 268 269 269 270 271 272 272 273 274 274 275 275 276 275 274 274 273 273 274 275 276 275 275 275
261 261 261 261 261 263 264 266 265 265 265 264 264 264 265 266 265 265 266 267 267 268 268 268 269 270 271 272 273 273 275 277 277 276 273 273 273 274 274 275 276 276 276 275
264 262 262 262 263 264 265 266 266 266 265 264 264 263 263 264 266 267 267 269 270 269 270 269 269 270 270 271 273 274 275 276 276 277 275 272 273 274 276 277 278 278 278 278
266 265 263 263 264 264 264 267 269 269 267 265 265 265 265 265 266 268 268 268 268 269 270 271 271 270 270 270 271 273 274 274 275 276 275 274 274 275 276 277 278 278 278 278
267 267 265 264 263 265 266 267 268 269 269 266 265 265 265 265 265 266 266 266 266 267 269 270 271 271 270 270 271 271 272 273 273 274 274 273 274 275 276 277 278 278 278 278
Height
5860 5860 5860 5859 5859 5859 5859 5858 5858 5857 5856 5856 5856 5855 5855 5854 5853 5853 5852 5852 5851 5851 5850 5850 5850 5849 5849 5849 5848 5848 5847 5847 5846 5846 5845 5845 5845 5845 5844 5844 5844 5844 5844 5844
5858 5858 5857 5856 5856 5856 5856 5856 5855 5855 5854 5854 5854 5853 5853 5852 5851 5851 5850 5850 5849 5849 5849 5848 5848 5847 5847 5847 5846 5846 5846 5845 5845 5844 5844 5843 5843 5843 5843 5842 5842 5842 5842 5842
5854 5855 5854 5853 5853 5853 5853 5853 5853 5853 5852 5851 5852 5852 5851 5850 5849 5848 5848 5848 5848 5847 5847 5847 5846 5846 5845 5845 5845 5844 5844 5843 5843 5842 5842 5842 5841 5841 5841 5840 5840 5840 5839 5839
5851 5851 5850 5850 5850 5850 5851 5850 5850 5850 5850 5849 5850 5849 5849 5847 5847 5846 5846 5846 5846 5845 5845 5845 5844 5844 5843 5843 5843 5842 5842 5842 5841 5841 5840 5840 5839 5839 5839 5838 5838 5837 5837 5837
5847 5847 5846 5846 5847 5847 5848 5847 5847 5847 5847 5847 5847 5847 5847 5845 5845 5844 5844 5843 5843 5843 5842 5842 5842 5841 5841 5841 5840 5840 5840 5839 5839 5838 5838 5838 5837 5837 5836 5836 5835 5835 5834 5834
5844 5843 5843 5843 5843 5844 5844 5845 5844 5844 5844 5844 5844 5844 5844 5843 5842 5842 5841 5841 5840 5840 5839 5839 5839 5839 5839 5838 5838 5838 5837 5837 5836 5836 5836 5835 5835 5834 5834 5833 5832 5832 5831 5831
5841 5841 5840 5840 5841 5841 5841 5842 5842 5841 5841 5841 5841 5840 5841 5840 5839 5839 5838 5838 5837 5837 5837 5836 5836 5836 5836 5836 5835 5835 5835 5834 5834 5833 5833 5832 5832 5831 5831 5830 5829 5829 5828 5827
5838 5838 5838 5838 5838 5838 5838 5839 5840 5840 5839 5838 5837 5837 5838 5837 5836 5836 5835 5835 5835 5834 5834 5834 5834 5833 5833 5833 5832 5832 5832 5831 5831 5830 5830 5829 5828 5828 5827 5827 5826 5825 5824 5824
5834 5835 5834 5834 5834 5835 5835 5835 5836 5836 5835 5834 5834 5834 5834 5833 5833 5832 5832 5832 5831 5831 5831 5831 5830 5830 5830 5830 5829 5829 5828 5828 5828 5827 5826 5826 5825 5824 5823 5823 5822 5821 5820 5819
5829 5830 5831 5831 5831 5831 5832 5832 5832 5831 5831 5831 5831 5831 5831 5830 5829 5829 5829 5828 5828 5828 5827 5827 5827 5827 5827 5826 5826 5825 5825 5824 5824 5823 5822 5822 5821 5820 5819 5818 5818 5817 5816 5815
5825 5826 5827 5827 5827 5827 5828 5828 5827 5828 5827 5828 5827 5829 5827 5826 5825 5825 5825 5824 5824 5824 5823 5823 5823 5822 5822 5822 5822 5821 5821 5820 5820 5819 5818 5818 5817 5816 5815 5814 5813 5813 5812 5811
5820 5821 5821 5822 5823 5823 5823 5823 5824 5824 5823 5823 5823 5826 5822 5822 5821 5821 5820 5820 5819 5819 5818 5818 5818 5818 5818 5818 5818 5817 5817 5816 5816 5815 5814 5813 5812 5811 5810 5809 5808 5808 5807 5806
5815 5816 5817 5817 5819 5819 5818 5818 5818 5819 5819 5818 5818 5821 5817 5817 5816 5816 5815 5815 5814 5813 5813 5813 5813 5813 5813 5813 5813 5813 5812 5812 5811 5810 5809 5808 5807 5806 5805 5804 5804 5803 5802 5801
5809 5810 5812 5813 5812 5812 5812 5813 5813 5813 5813 5813 5813 5814 5813 5812 5811 5811 5810 5810 5809 5808 5808 5808 5808 5808 5809 5809 5809 5808 5808 5807 5806 5805 5804 5803 5802 5801 5800 5799 5798 5797 5796 5795
5803 5804 5805 5805 5806 5806 5806 5807 5807 5807 5807 5808 5808 5808 5808 5807 5806 5806 5806 5805 5804 5804 5804 5804 5803 5803 5804 5804 5804 5803 5802 5802 5801 5800 5799 5798 5797 5796 5794 5793 5792 5791 5791 5790
5796 5797 5798 5799 5799 5799 5800 5801 5801 5801 5801 5802 5802 5802 5802 5801 5801 5801 5801 5800 5800 5800 5800 5799 5799 5798 5798 5798 5798 5797 5797 5796 5795 5795 5793 5792 5791 5790 5788 5787 5787 5786 5785 5784
5790 5791 5791 5792 5792 5792 5793 5795 5795 5795 5795 5796 5796 5797 5796 5796 5796 5796 5796 5795 5795 5795 5795 5794 5794 5793 5793 5793 5792 5791 5791 5790 5790 5789 5787 5786 5785 5784 5782 5781 5781 5780 5779 5777
5783 5783 5783 5784 5785 5785 5789 5788 5788 5788 5789 5789 5789 5790 5790 5790 5790 5789 5789 5789 5789 5789 5789 5788 5788 5787 5787 5786 5786 5785 5785 5784 5783 5782 5781 5780 5779 5778 5776 5775 5774 5774 5773 5771
5775 5776 5776 5777 5777 5778 5780 5780 5780 5781 5781 5782 5782 5783 5783 5783 5783 5783 5783 5783 5783 5783 5782 5782 5782 5781 5780 5780 5779 5779 5778 5778 5777 5776 5775 5774 5773 5771 5770 5769 5768 5768 5766 5765
5768 5768 5769 5769 5769 5770 5773 5773 5773 5774 5774 5775 5775 5775 5776 5776 5776 5777 5777 5776 5776 5775 5775 5775 5775 5774 5774 5773 5772 5772 5771 5771 5770 5769 5768 5767 5766 5765 5764 5763 5762 5761 5760 5759
5760 5760 5761 5762 5761 5762 5764 5765 5766 5767 5768 5768 5767 5768 5768 5768 5769 5770 5769 5768 5768 5768 5768 5767 5767 5767 5766 5766 5765 5764 5764 5763 5763 5762 5761 5760 5759 5758 5757 5756 5756 5755 5754 5752
5753 5753 5754 5754 5754 5757 5757 5757 5758 5759 5759 5759 5759 5760 5760 5760 5761 5761 5761 5760 5760 5760 5760 5759 5759 5758 5758 5757 5757 5757 5756 5756 5755 5754 5753 5752 5751 5750 5750 5749 5748 5747 5746 5745
5745 5746 5746 5747 5749 5749 5748 5749 5749 5750 5750 5750 5751 5751 5752 5752 5752 5752 5752 5752 5752 5752 5751 5751 5751 5750 5750 5749 5749 5748 5748 5747 5746 5745 5745 5744 5743 5743 5742 5741 5740 5739 5738 5737
5737 5737 5738 5739 5740 5740 5740 5740 5740 5741 5741 5741 5742 5742 5743 5743 5743 5743 5743 5743 5743 5743 5742 5742 5742 5742 5741 5741 5740 5739 5739 5738 5737 5737 5736 5735 5735 5734 5733 5732 5731 5730 5729 5728
5729 5729 5729 5730 5731 5731 5731 5732 5732 5732 5732 5732 5732 5733 5733 5733 5733 5733 5733 5733 5733 5733 5733 5733 5732 5732 5732 5731 5731 5730 5729 5728 5728 5728 5727 5726 5726 5725 5724 5723 5722 5721 5720 5719
5721 5721 5720 5721 5721 5721 5722 5722 5722 5722 5722 5722 5722 5723 5722 5722 5723 5723 5723 5723 5723 5723 5723 5723 5722 5722 5721 5721 5721 5720 5719 5719 5718 5718 5717 5717 5716 5715 5715 5714 5713 5711 5710 5709